Hourly Weather Roundup
Issued by NWS Central Illinois

Home | Current Version | Previous Version | Text Only | Print | Product List | Glossary On
Versions: 1 2 3 4 5 6 7 8 9 10 11 12 13 14 15 16 17 18 19 20 21 22 23 24 25 26 27 28 29 30 31 32 33 34 35 36 37 38 39 40 41 42 43 44 45 46 47 48 49 50
000
NZUS43 KILX 291510
HWRILX

AREA WEATHER ROUNDUP
NATIONAL WEATHER SERVICE, LINCOLN IL
1000 AM CDT SUN MAY 29 2016


CITY           SKY/WX    TMP DP  RH WIND       PRES   REMARKS
BLOOMINGTON    SUNNY     74  66  75 SW15      30.08S
CHAMPAIGN      MOSUNNY   79  59  50 SW13      30.08S HX  80
DANVILLE       RAIN      77  61  57 SW9       30.05F
DECATUR        SUNNY     79  61  53 SW10      30.08S HX  80
EFFINGHAM      MOSUNNY   78  71  79 S7        30.11S HX  80
FLORA          PTSUNNY   78  70  76 SW6       30.09F HX  80
GALESBURG      SUNNY     71  62  73 W10       30.07S
JACKSONVILLE   SUNNY     77  62  60 W9        30.08S
LACON          SUNNY     73  58  58 W13G18    30.04S
LAWRENCEVILLE  MOSUNNY   80  69  69 VRB3      30.09S HX  83
LITCHFIELD     SUNNY     77  58  53 W7        30.10S
$$


CITY           SKY/WX    TMP DP  RH WIND       PRES   REMARKS
LINCOLN        SUNNY     77  66  67 SW6       30.07S
MACOMB         SUNNY     73  61  66 W10       30.10R
MATTOON        SUNNY     78  62  57 VRB7      30.09R HX  80
MT CARMEL AP   PTSUNNY   78  67  69 W8        30.09S HX  80
OLNEY-NOBLE AP PTSUNNY   75  70  83 CALM      30.09F
PARIS          SUNNY     79  66  65 SW6       30.09S HX  81
PEORIA         SUNNY     75  60  59 W12       30.06R
PONTIAC        SUNNY     76  65  67 SW15      30.05S
RANTOUL        SUNNY     79  63  57 W10G18    30.08R HX  80
ROBINSON       SUNNY     79  66  63 SW6       30.09F HX  81
SPRINGFIELD    SUNNY     79  61  53 W13       30.08S HX  80
TAYLORVILLE    SUNNY     78  61  55 W8        30.09S HX  80
$$

...REGIONAL REPORTS...


CITY           SKY/WX    TMP DP  RH WIND       PRES   REMARKS
CHICAGO O`HARE MOSUNNY   74  61  63 SW14G23   29.99S
KANKAKEE       SUNNY     78  64  62 SW14G22   30.05S
MOLINE         PTSUNNY   73  61  65 W10       30.04R
MOUNT STERLING SUNNY     73  60  62 W12       30.08S
MOUNT VERNON   SUNNY     77  66  69 NW3       30.10F
PITTSFIELD     SUNNY     76  64  64 W7        30.10S
QUINCY         SUNNY     74  58  57 W8        30.09R
ROCKFORD       CLOUDY    68  59  73 SW9       30.04R
$$


CITY           SKY/WX    TMP DP  RH WIND       PRES   REMARKS
BURLINGTON     SUNNY     72  62  71 W9        30.07R
CEDAR RAPIDS   MOSUNNY   70  63  78 W13       30.04S
DES MOINES     MOSUNNY   70  58  65 W10       30.08R
KIRKSVILLE     SUNNY     74  59  59 W8        30.11S
OTTUMWA        SUNNY     70  61  73 NW7       30.08R
ST LOUIS       MOSUNNY   81  62  52 NW6       30.11R HX  82
$$


CITY           SKY/WX    TMP DP  RH WIND       PRES   REMARKS
TERRE HAUTE    SUNNY     78  64  61 CALM      30.09S HX  80
EVANSVILLE     SUNNY     79  67  66 S6        30.10S HX  81
INDIANAPOLIS   MOSUNNY   78  69  73 SW9       30.08S HX  80
LAFAYETTE      MOSUNNY   78  61  55 W12       30.06S HX  80
MADISON        PTSUNNY   70  60  70 W12G18    29.95R
MILWAUKEE      PTSUNNY   72  60  66 SW15      29.95S
$$






USA.gov is the U.S. government's official web portal to all federal, state and local government web resources and services.